Date,TemperatureHighF,TemperatureAvgF,TemperatureLowF,DewpointHighF,DewpointAvgF,DewpointLowF,HumidityHigh,HumidityAvg,HumidityLow,PressureMaxIn,PressureMinIn,WindSpeedMaxMPH,WindSpeedAvgMPH,GustSpeedMaxMPH,PrecipitationSumIn
2013-8-1,84,77,67,61,51,44,70,41,28,30.35,30.19,23,13,30,0.00
2013-8-2,87,78,68,58,51,46,66,39,25,30.25,30.12,24,11,33,0.00
2013-8-3,88,77,65,60,53,45,75,45,25,30.27,30.18,20,11,27,0.00
2013-8-4,89,81,74,55,49,42,51,33,22,30.27,30.14,24,9,33,0.00
2013-8-5,88,78,69,58,50,42,64,39,23,30.25,30.11,31,16,37,0.00
2013-8-6,83,75,68,58,52,45,70,46,27,30.23,30.11,33,22,42,0.00
2013-8-7,80,71,64,56,53,48,72,55,33,30.22,30.09,34,24,46,0.00
2013-8-8,86,75,64,54,46,36,66,39,21,30.21,30.11,24,16,35,0.00
2013-8-9,89,79,72,47,40,34,36,25,16,30.25,30.15,23,13,35,0.00
2013-8-10,75,70,65,58,54,47,69,57,37,30.38,30.22,41,23,50,0.00
2013-8-11,76,65,51,62,58,51,100,81,55,30.36,30.23,24,14,32,0.00
2013-8-12,80,72,65,62,59,51,81,64,38,30.30,30.19,23,14,40,0.00
2013-8-13,82,73,66,61,53,-100,80,54,35,30.31,30.20,17,11,21,0.00
2013-8-14,84,75,67,59,54,48,66,49,33,30.32,30.19,21,14,42,0.00
2013-8-15,82,62,62,59,30,-100,86,48,32,30.32,30.24,27,10,37,0.00
2013-8-16,86,76,66,56,49,39,63,41,21,30.32,30.29,23,7,27,0.00
2013-8-17,88,78,72,50,42,-100,40,29,18,30.29,30.29,23,9,29,0.00
2013-8-18,87,80,72,50,46,43,40,31,22,30.27,30.22,30,10,41,0.00
2013-8-19,86,68,71,52,32,-100,50,35,27,30.29,30.22,24,13,31,0.00
2013-8-20,80,73,67,56,48,-100,60,44,30,30.26,30.18,24,9,30,0.00
2013-8-21,83,75,68,53,45,33,58,36,20,30.27,30.22,22,13,30,0.00
2013-8-22,81,75,67,48,39,33,43,27,19,30.28,30.18,23,15,28,0.00
2013-8-23,80,72,64,54,51,46,63,47,31,30.24,30.10,37,17,47,0.00
2013-8-24,78,70,62,55,49,-100,71,50,35,30.27,30.15,31,21,41,0.00
2013-8-25,82,73,65,57,51,48,76,47,30,30.34,30.20,37,21,44,0.00
2013-8-26,81,72,64,54,51,47,66,47,29,30.34,30.17,38,27,47,0.00
2013-8-27,74,69,63,57,54,49,72,59,46,30.29,30.22,31,23,38,0.00
2013-8-28,72,68,63,64,58,56,99,71,56,30.32,30.27,15,10,22,0.00
2013-8-29,69,64,60,64,61,57,99,89,65,30.38,30.31,16,9,20,0.00
2013-8-30,80,73,65,61,58,55,83,60,47,30.34,30.25,15,10,25,0.00
2013-8-31,85,76,72,60,49,-100,59,41,27,30.21,30.16,17,12,24,0.00